Barksdale AFB, LA

12:01 PM CDT on March 30, 2017 (GMT -0500)
Barksdale Air Force Base

Weather History for KBAD - April, 2013

Change the Weather History Date:

Saturday, April 13, 2013

  Actual Average Record
Temperature  
Mean Temperature 61 °F -  
Max Temperature 76 °F 73 °F 84 °F (2006)
Min Temperature 46 °F 52 °F 32 °F (1997)
Degree Days  
Heating Degree Days 4    
Growing Degree Days 11 (Base 50)    
Moisture  
Dew Point 50 °F    
Average Humidity 64    
Maximum Humidity 99    
Minimum Humidity 33    
Precipitation  
Precipitation 0.00 in - - ()
Sea Level Pressure  
Sea Level Pressure 29.94 in    
Wind  
Wind Speed 3 mph (ESE)    
Max Wind Speed 13 mph    
Max Gust Speed 18 mph    
Visibility 10 miles    
Events Rain    
Averages and records for this station are not official NWS values.
T = Trace of Precipitation, MM = Missing Value Source: NWS Daily Summary

Daily Weather History Graph

Daily Weather History Graph

Search for Another Location

Airport or City:

Trip Planner

Search our weather history database for the weather conditions in past years. The results will help you decide how hot, cold, wet, or windy it might be!

Date:

Astronomy

Apr. 13, 2013 Rise Set
Actual Time 6:47 AM CDT 7:43 PM CDT
Civil Twilight 6:22 AM CDT 8:08 PM CDT
Nautical Twilight 5:52 AM CDT 8:38 PM CDT
Astronomical Twilight 5:21 AM CDT 9:08 PM CDT
Moon 8:48 AM CDT (4/13) 10:58 PM CDT (4/13)
Length of Visible Light 13h 46m
Length of Day
12h 55m
Waxing Crescent, 10% of the Moon is Illuminated
Apr 13
Waxing Crescent
Apr 18
First Quarter
Apr 25
Full
May 2
Last Quarter
May 9
New

Hourly Weather History & Observations

Time (CDT) Temp. Dew Point Humidity Pressure Visibility Wind Dir Wind Speed Gust Speed Precip Events Conditions
12:58 AM 52.3 °F 48.7 °F 88% 29.99 in 10.0 mi East 2.3 mph - N/A   Clear
1:58 AM 51.3 °F 48.4 °F 90% 29.99 in 10.0 mi East 1.2 mph - N/A   Clear
2:58 AM 50.4 °F 48.6 °F 94% 29.99 in 10.0 mi Calm Calm - N/A   Clear
3:58 AM 48.7 °F 48.0 °F 97% 29.98 in 10.0 mi East 2.3 mph - N/A   Clear
4:58 AM 47.7 °F 47.3 °F 99% 29.98 in 10.0 mi ESE 1.2 mph - N/A   Clear
5:58 AM 47.1 °F 46.8 °F 99% 29.99 in 10.0 mi Calm Calm - N/A   Clear
6:58 AM 46.9 °F 46.0 °F 97% 30.01 in 10.0 mi North 2.3 mph - N/A   Clear
7:58 AM 50.9 °F 49.6 °F 95% 30.04 in 10.0 mi NNE 4.6 mph - N/A   Clear
8:58 AM 56.7 °F 50.4 °F 79% 30.06 in 10.0 mi Variable 1.2 mph - N/A   Clear
9:58 AM 63.7 °F 51.3 °F 64% 30.06 in 10.0 mi Variable 2.3 mph - N/A   Clear
10:58 AM 68.7 °F 50.4 °F 52% 30.06 in 10.0 mi Variable 2.3 mph - N/A   Clear
11:58 AM 71.6 °F 50.5 °F 47% 30.03 in 10.0 mi Calm Calm - N/A   Clear
12:58 PM 73.4 °F 48.7 °F 42% 30.01 in 10.0 mi SE 6.9 mph - N/A   Clear
1:58 PM 75.2 °F 47.7 °F 38% 29.97 in 10.0 mi SE 12.7 mph 17.3 mph N/A   Clear
2:58 PM 76.1 °F 45.3 °F 33% 29.94 in 10.0 mi SSE 12.7 mph 18.4 mph N/A   Clear
3:58 PM 75.9 °F 47.1 °F 36% 29.91 in 10.0 mi SSE 4.6 mph - N/A   Clear
4:58 PM 74.7 °F 47.3 °F 38% 29.89 in 10.0 mi ESE 8.1 mph - N/A   Clear
5:58 PM 72.0 °F 51.4 °F 48% 29.88 in 10.0 mi SE 4.6 mph - N/A   Scattered Clouds
6:52 PM 69.8 °F 51.8 °F 53% 29.86 in 10.0 mi East 5.8 mph - N/A Rain Light Rain
6:58 PM 69.3 °F 52.2 °F 54% 29.87 in 10.0 mi East 4.6 mph - 0.00 in Rain Light Rain
7:00 PM 69.8 °F 53.6 °F 56% 29.86 in 10.0 mi East 3.5 mph - N/A   Partly Cloudy
7:08 PM 69.8 °F 51.8 °F 53% 29.86 in 10.0 mi East 3.5 mph - N/A Rain Light Rain
7:18 PM 69.8 °F 51.8 °F 53% 29.86 in 10.0 mi East 4.6 mph - N/A   Mostly Cloudy
7:58 PM 67.6 °F 50.4 °F 54% 29.87 in 10.0 mi East 5.8 mph - 0.00 in   Mostly Cloudy
8:58 PM 65.7 °F 50.5 °F 58% 29.87 in 10.0 mi ESE 6.9 mph - N/A   Scattered Clouds
9:58 PM 64.4 °F 50.5 °F 61% 29.87 in 10.0 mi ESE 5.8 mph - N/A   Mostly Cloudy
10:58 PM 61.9 °F 50.2 °F 65% 29.87 in 10.0 mi East 4.6 mph - N/A   Overcast
11:58 PM 63.5 °F 50.0 °F 61% 29.84 in 10.0 mi ESE 8.1 mph - N/A   Scattered Clouds